IW9GTD-13 Weather Reports


time (UTC)temp
F
wind
direction
speed
knots
gust
knots
rain 1hr
in
rain 24hr
in
rain mn
in
humidity
%
barometer
mb
20260906113823 89 321 2.6 6.1 0.00 0.00 0.00 66 1019.9
20260906113323 89 321 2.6 5.2 0.00 0.00 0.00 66 1019.9
20260906112823 89 317 2.6 5.2 0.00 0.00 0.00 66 1019.9
20260906112323 89 317 2.6 5.2 0.00 0.00 0.00 66 1019.9
20260906111823 89 320 2.6 5.2 0.00 0.00 0.00 66 1019.9
20260906111323 89 321 2.6 5.2 0.00 0.00 0.00 65 1019.9
20260906110822 90 316 2.6 5.2 0.00 0.00 0.00 65 1019.9
20260906110322 89 322 2.6 5.2 0.00 0.00 0.00 65 1020.0
20260906105823 88 316 2.6 5.2 0.00 0.00 0.00 67 1020.0
20260906105323 88 309 3.5 6.1 0.00 0.00 0.00 67 1020.0
20260906104822 88 311 2.6 5.2 0.00 0.00 0.00 66 1020.0
20260906104323 87 306 3.5 5.2 0.00 0.00 0.00 68 1020.0
20260906103822 88 303 3.5 7.0 0.00 0.00 0.00 66 1020.0
20260906103322 87 306 3.5 7.0 0.00 0.00 0.00 67 1020.1
20260906102823 88 307 3.5 5.2 0.00 0.00 0.00 65 1020.1
20260906102323 89 307 2.6 4.3 0.00 0.00 0.00 64 1020.1
20260906101823 88 306 2.6 5.2 0.00 0.00 0.00 65 1020.2
20260906101323 88 307 2.6 5.2 0.00 0.00 0.00 65 1020.3
20260906100822 88 308 2.6 5.2 0.00 0.00 0.00 66 1020.3
20260906100322 87 304 2.6 5.2 0.00 0.00 0.00 67 1020.4
20260906095822 87 303 2.6 5.2 0.00 0.00 0.00 67 1020.4
20260906095323 87 303 3.5 5.2 0.00 0.00 0.00 68 1020.4
20260906094823 87 308 3.5 5.2 0.00 0.00 0.00 68 1020.3
20260906094322 88 306 2.6 4.3 0.00 0.00 0.00 67 1020.4
20260906093823 87 300 3.5 5.2 0.00 0.00 0.00 68 1020.4
20260906093322 87 311 3.5 5.2 0.00 0.00 0.00 68 1020.5
20260906092823 87 317 2.6 4.3 0.00 0.00 0.00 67 1020.5
20260906092323 87 321 2.6 4.3 0.00 0.00 0.00 67 1020.4
20260906091823 87 319 2.6 5.2 0.00 0.00 0.00 67 1020.5
20260906091323 87 304 2.6 4.3 0.00 0.00 0.00 68 1020.5
20260906090823 86 299 2.6 5.2 0.00 0.00 0.00 68 1020.5
20260906090322 87 314 2.6 4.3 0.00 0.00 0.00 67 1020.5
20260906085822 87 323 2.6 4.3 0.00 0.00 0.00 67 1020.5
20260906085323 87 324 2.6 5.2 0.00 0.00 0.00 67 1020.6
20260906084822 87 324 2.6 5.2 0.00 0.00 0.00 68 1020.5
20260906084323 87 316 1.7 3.5 0.00 0.00 0.00 68 1020.5
20260906083823 86 301 2.6 4.3 0.00 0.00 0.00 71 1020.5
20260906083323 86 306 2.6 5.2 0.00 0.00 0.00 71 1020.4
20260906082823 86 311 1.7 4.3 0.00 0.00 0.00 70 1020.4
20260906082323 86 306 2.6 4.3 0.00 0.00 0.00 70 1020.4
20260906081823 86 297 1.7 4.3 0.00 0.00 0.00 71 1020.3
20260906081323 87 308 1.7 3.5 0.00 0.00 0.00 70 1020.2
20260906080823 86 311 1.7 3.5 0.00 0.00 0.00 71 1020.2
20260906080323 86 314 1.7 3.5 0.00 0.00 0.00 72 1020.2
20260906075826 86 313 1.7 4.3 0.00 0.00 0.00 72 1020.0
20260906075322 86 310 1.7 3.5 0.00 0.00 0.00 71 1020.0
20260906074823 87 306 1.7 2.6 0.00 0.00 0.00 70 1020.0
20260906074323 87 315 0.9 3.5 0.00 0.00 0.00 70 1019.9
20260906073823 87 323 0.9 2.6 0.00 0.00 0.00 69 1019.9
20260906073323 87 327 0.9 1.7 0.00 0.00 0.00 69 1019.9
20260906072823 87 321 0.9 2.6 0.00 0.00 0.00 69 1019.8
20260906072323 87 325 0.9 1.7 0.00 0.00 0.00 69 1019.8
20260906071823 88 302 0.9 1.7 0.00 0.00 0.00 67 1019.7
20260906071322 88 211 0.0 0.9 0.00 0.00 0.00 67 1019.6
20260906070823 87 240 0.0 0.9 0.00 0.00 0.00 68 1019.7
20260906070323 86 163 0.0 0.9 0.00 0.00 0.00 69 1019.6
20260906065824 85 80 0.0 0.9 0.00 0.00 0.00 71 1019.6
20260906065323 84 131 0.0 0.9 0.00 0.00 0.00 72 1019.6
20260906064823 83 136 0.9 0.9 0.00 0.00 0.00 73 1019.6
20260906064323 83 135 0.9 0.9 0.00 0.00 0.00 73 1019.6
20260906063823 82 120 0.9 0.9 0.00 0.00 0.00 72 1019.4
20260906063323 82 117 0.9 0.9 0.00 0.00 0.00 74 1019.4
20260906062823 81 116 0.9 1.7 0.00 0.00 0.00 73 1019.3
20260906062323 80 118 0.9 1.7 0.00 0.00 0.00 74 1019.3
20260906061822 79 118 0.9 1.7 0.00 0.00 0.00 75 1019.3
20260906061323 78 116 0.9 1.7 0.00 0.00 0.00 75 1019.3
20260906060823 78 112 0.9 0.9 0.00 0.00 0.00 75 1019.4
20260906060323 77 114 0.9 1.7 0.00 0.00 0.00 77 1019.3
20260906055823 76 114 0.9 1.7 0.00 0.00 0.00 78 1019.3
20260906055323 75 115 0.9 0.9 0.00 0.00 0.00 79 1019.3
20260906054823 74 116 0.9 1.7 0.00 0.00 0.00 80 1019.3
20260906054323 74 120 0.9 1.7 0.00 0.00 0.00 81 1019.2
20260906053823 73 121 0.9 1.7 0.00 0.00 0.00 80 1019.2
20260906053323 73 122 0.9 1.7 0.00 0.00 0.00 80 1019.1
20260906052823 73 121 0.9 1.7 0.00 0.00 0.00 81 1019.1
20260906052323 73 119 0.9 1.7 0.00 0.00 0.00 82 1019.1
20260906051823 72 119 0.9 1.7 0.00 0.00 0.00 83 1019.1
20260906051323 72 119 1.7 1.7 0.00 0.00 0.00 82 1019.1
20260906050823 72 119 0.9 1.7 0.00 0.00 0.00 82 1019.1
20260906050323 72 119 0.9 1.7 0.00 0.00 0.00 83 1019.0
20260906045823 72 112 0.9 1.7 0.00 0.00 0.00 83 1019.1
20260906045323 72 112 0.9 0.9 0.00 0.00 0.00 83 1019.0
20260906044823 72 84 0.0 0.9 0.00 0.00 0.00 82 1019.0
20260906044323 72 72 0.9 0.9 0.00 0.00 0.00 81 1019.0
20260906043823 72 110 0.9 0.9 0.00 0.00 0.00 82 1018.9
20260906043323 72 114 0.9 1.7 0.00 0.00 0.00 81 1018.9
20260906042823 71 116 0.9 1.7 0.00 0.00 0.00 82 1018.9
20260906042323 71 115 0.9 1.7 0.00 0.00 0.00 81 1018.8
20260906041823 72 116 0.9 1.7 0.00 0.00 0.00 80 1018.7
20260906041323 72 116 0.9 0.9 0.00 0.00 0.00 80 1018.6
20260906040823 72 117 0.9 0.9 0.00 0.00 0.00 79 1018.6
20260906040323 72 121 0.9 0.9 0.00 0.00 0.00 80 1018.6
20260906035823 72 120 0.9 1.7 0.00 0.00 0.00 79 1018.6
20260906035323 72 119 0.9 0.9 0.00 0.00 0.00 79 1018.6
20260906034823 72 120 0.9 0.9 0.00 0.00 0.00 79 1018.5
20260906034323 73 122 0.9 0.9 0.00 0.00 0.00 79 1018.5
20260906033823 73 127 0.9 0.9 0.00 0.00 0.00 78 1018.6
20260906033323 73 128 0.9 0.9 0.00 0.00 0.00 78 1018.6
20260906032823 73 125 0.9 0.9 0.00 0.00 0.00 78 1018.5
20260906032323 73 125 0.9 0.9 0.00 0.00 0.00 78 1018.6
20260906031823 73 157 0.9 0.9 0.00 0.00 0.00 78 1018.6
20260906031323 73 123 0.9 0.9 0.00 0.00 0.00 78 1018.6
20260906030823 73 120 0.9 0.9 0.00 0.00 0.00 78 1018.5
20260906030323 73 120 0.9 0.9 0.00 0.00 0.00 79 1018.5
20260906025823 73 123 0.9 1.7 0.00 0.00 0.00 79 1018.5
20260906025323 73 126 0.9 0.9 0.00 0.00 0.00 79 1018.5
20260906024824 73 125 0.9 0.9 0.00 0.00 0.00 79 1018.5
20260906024323 73 125 0.9 0.9 0.00 0.00 0.00 78 1018.5
20260906023824 73 126 0.9 0.9 0.00 0.00 0.00 79 1018.5
20260906023323 73 120 0.9 0.9 0.00 0.00 0.00 79 1018.5
20260906022823 73 111 0.9 0.9 0.00 0.00 0.00 79 1018.5
20260906022323 73 134 0.9 0.9 0.00 0.00 0.00 79 1018.5
20260906021824 73 121 0.9 0.9 0.00 0.00 0.00 80 1018.6
20260906021323 72 128 0.9 0.9 0.00 0.00 0.00 80 1018.5
20260906020824 72 128 0.9 0.9 0.00 0.00 0.00 81 1018.5
20260906020323 72 139 0.9 0.9 0.00 0.00 0.00 81 1018.5
20260906015823 72 142 0.9 0.9 0.00 0.00 0.00 80 1018.6
20260906015323 73 142 0.9 0.9 0.00 0.00 0.00 80 1018.5
20260906014823 73 169 0.0 0.9 0.00 0.00 0.00 80 1018.5
20260906014324 73 85 0.0 0.9 0.00 0.00 0.00 80 1018.6
20260906013823 73 126 0.0 0.9 0.00 0.00 0.00 80 1018.6
20260906013323 73 126 0.9 0.9 0.00 0.00 0.00 81 1018.6
20260906012823 73 134 0.0 0.9 0.00 0.00 0.00 80 1018.6
20260906012323 73 137 0.9 0.9 0.00 0.00 0.00 80 1018.6
20260906011823 73 136 0.9 0.9 0.00 0.00 0.00 79 1018.7
20260906011323 74 136 0.9 0.9 0.00 0.00 0.00 78 1018.7
20260906010823 74 136 0.9 0.9 0.00 0.00 0.00 78 1018.6
20260906010323 74 136 0.9 0.9 0.00 0.00 0.00 78 1018.7
20260906005823 74 115 0.9 0.9 0.00 0.00 0.00 79 1018.7
20260906005323 74 116 0.9 0.9 0.00 0.00 0.00 78 1018.7
20260906004823 74 117 0.9 0.9 0.00 0.00 0.00 78 1018.7
20260906004324 74 116 0.9 1.7 0.00 0.00 0.00 79 1018.6
20260906003823 74 117 0.9 1.7 0.00 0.00 0.00 79 1018.6
20260906003324 74 119 0.9 1.7 0.00 0.00 0.00 79 1018.6
20260906002823 75 126 0.9 0.9 0.00 0.00 0.00 79 1018.6
20260906002323 75 101 0.9 0.9 0.00 0.00 0.00 79 1018.6
20260906001824 75 105 0.9 0.9 0.00 0.00 0.00 79 1018.6
20260906001323 75 100 0.9 0.9 0.00 0.00 0.00 79 1018.5
20260906000824 75 94 0.9 0.9 0.00 0.00 0.00 79 1018.5
20260906000326 76 85 0.9 0.9 0.00 0.00 0.00 79 1018.6
20260905235823 76 89 0.9 0.9 0.00 0.00 0.00 79 1018.5
20260905235324 76 104 0.9 0.9 0.00 0.00 0.00 80 1018.6
20260905234823 76 99 0.9 0.9 0.00 0.00 0.00 80 1018.6
20260905234324 76 93 0.9 0.9 0.00 0.00 0.00 80 1018.6
20260905233823 75 100 0.9 0.9 0.00 0.00 0.00 80 1018.7
20260905233324 75 111 0.9 0.9 0.00 0.00 0.00 80 1018.8
20260905232823 75 96 0.0 0.9 0.00 0.00 0.00 79 1018.8
20260905232323 76 102 0.9 0.9 0.00 0.00 0.00 80 1018.8
20260905231823 76 101 0.0 0.9 0.00 0.00 0.00 79 1018.9
20260905231323 76 120 0.9 0.9 0.00 0.00 0.00 79 1018.9
20260905230824 76 120 0.9 0.9 0.00 0.00 0.00 79 1018.9
20260905230323 77 120 0.0 0.9 0.00 0.00 0.00 78 1018.9
20260905225824 77 109 0.0 0.9 0.00 0.00 0.00 79 1018.9
20260905225324 76 96 0.9 0.9 0.00 0.00 0.00 79 1018.9
20260905224823 76 89 0.9 0.9 0.00 0.00 0.00 79 1019.0
20260905224323 76 90 0.0 0.9 0.00 0.00 0.00 78 1019.0
20260905223823 77 80 0.0 0.9 0.00 0.00 0.00 78 1019.0
20260905223324 77 80 0.0 0.9 0.00 0.00 0.00 78 1019.0
20260905222823 77 80 0.0 1.7 0.00 0.00 0.00 77 1018.9
20260905222323 77 55 0.0 0.0 0.00 0.00 0.00 77 1019.0
20260905221823 77 49 0.0 0.9 0.00 0.00 0.00 78 1019.0
20260905221323 77 124 0.0 0.0 0.00 0.00 0.00 78 1018.9
20260905220823 77 94 0.0 0.9 0.00 0.00 0.00 77 1018.9
20260905220323 77 121 0.0 0.9 0.00 0.00 0.00 77 1018.9
20260905215824 78 17 0.0 0.9 0.00 0.00 0.00 76 1018.9
20260905215326 78 136 0.0 0.9 0.00 0.00 0.00 76 1018.9
20260905214826 79 92 0.0 0.0 0.00 0.00 0.00 75 1018.8
20260905214324 79 91 0.0 0.0 0.00 0.00 0.00 76 1018.8
20260905213824 79 68 0.0 0.9 0.00 0.00 0.00 75 1018.7
20260905213323 80 54 0.0 0.9 0.00 0.00 0.00 75 1018.8
20260905212823 79 29 0.0 0.0 0.00 0.00 0.00 75 1018.8
20260905212324 79 50 0.0 0.9 0.00 0.00 0.00 75 1018.9
20260905211824 79 53 0.0 0.9 0.00 0.00 0.00 75 1018.9
20260905211323 79 70 0.0 0.9 0.00 0.00 0.00 75 1018.9
20260905210824 79 57 0.0 0.9 0.00 0.00 0.00 76 1018.9
20260905210323 79 45 0.9 0.9 0.00 0.00 0.00 76 1018.9
20260905205823 79 39 0.9 0.9 0.00 0.00 0.00 75 1018.9
20260905205324 80 28 0.9 0.9 0.00 0.00 0.00 75 1018.8
20260905204824 80 12 0.9 0.9 0.00 0.00 0.00 76 1018.7
20260905204324 80 346 0.9 0.9 0.00 0.00 0.00 76 1018.7
20260905203823 80 336 0.9 1.7 0.00 0.00 0.00 76 1018.7
20260905203324 80 335 0.9 1.7 0.00 0.00 0.00 76 1018.7
20260905202823 80 328 0.9 1.7 0.00 0.00 0.00 76 1018.8
20260905202324 81 325 0.9 0.9 0.00 0.00 0.00 74 1018.8
20260905201823 81 15 0.0 0.9 0.00 0.00 0.00 74 1018.8
20260905201324 81 15 0.9 0.9 0.00 0.00 0.00 74 1018.8
20260905200824 81 16 0.0 1.7 0.00 0.00 0.00 74 1018.8
20260905200325 81 11 0.0 0.0 0.00 0.00 0.00 73 1018.8
20260905195824 81 11 0.0 0.9 0.00 0.00 0.00 73 1018.8
20260905195324 81 39 0.0 0.9 0.00 0.00 0.00 74 1018.8
20260905194824 81 37 0.9 1.7 0.00 0.00 0.00 74 1018.7
20260905194324 81 20 0.9 0.9 0.00 0.00 0.00 74 1018.8
20260905193823 81 7 0.9 1.7 0.00 0.00 0.00 74 1018.7
20260905192824 82 4 0.9 1.7 0.00 0.00 0.00 74 1018.7
20260905192324 82 5 0.9 1.7 0.00 0.00 0.00 74 1018.6
20260905191824 82 3 0.9 1.7 0.00 0.00 0.00 73 1018.6
20260905191325 82 5 1.7 2.6 0.00 0.00 0.00 73 1018.6
20260905190824 82 3 1.7 2.6 0.00 0.00 0.00 73 1018.6
20260905190324 82 5 1.7 2.6 0.00 0.00 0.00 73 1018.6
20260905185824 82 9 0.9 2.6 0.00 0.00 0.00 73 1018.6
20260905185324 82 10 1.7 2.6 0.00 0.00 0.00 73 1018.5
20260905184824 82 17 0.9 2.6 0.00 0.00 0.00 72 1018.5
20260905184324 82 17 0.9 2.6 0.00 0.00 0.00 72 1018.4
20260905183824 82 11 1.7 2.6 0.00 0.00 0.00 73 1018.3
20260905183324 82 8 1.7 2.6 0.00 0.00 0.00 73 1018.3
20260905182824 82 2 1.7 2.6 0.00 0.00 0.00 73 1018.2
20260905181824 82 356 0.9 2.6 0.00 0.00 0.00 73 1018.3
20260905181324 83 357 1.7 3.5 0.00 0.00 0.00 73 1018.2
20260905180824 83 0 0.9 1.7 0.00 0.00 0.00 72 1018.2
20260905180324 83 358 0.9 1.7 0.00 0.00 0.00 72 1018.1
20260905175824 83 356 0.9 2.6 0.00 0.00 0.00 72 1018.0
20260905175324 83 1 0.9 2.6 0.00 0.00 0.00 72 1017.9
20260905174824 83 0 1.7 3.5 0.00 0.00 0.00 72 1017.9
20260905174324 83 1 1.7 2.6 0.00 0.00 0.00 72 1017.8
20260905173824 83 358 1.7 2.6 0.00 0.00 0.00 72 1017.8
20260905173324 84 355 1.7 3.5 0.00 0.00 0.00 71 1017.9
20260905172824 84 357 1.7 3.5 0.00 0.00 0.00 71 1017.8
20260905172324 84 356 1.7 3.5 0.00 0.00 0.00 71 1017.8
20260905171824 84 359 1.7 3.5 0.00 0.00 0.00 71 1017.8
20260905171324 85 355 1.7 2.6 0.00 0.00 0.00 70 1017.9
20260905170824 85 351 1.7 5.2 0.00 0.00 0.00 69 1017.8
20260905170324 85 356 2.6 4.3 0.00 0.00 0.00 68 1017.9
20260905165825 86 3 1.7 4.3 0.00 0.00 0.00 68 1017.9
20260905165324 86 4 1.7 5.2 0.00 0.00 0.00 68 1018.0
20260905164824 86 8 2.6 5.2 0.00 0.00 0.00 69 1018.1
20260905164324 87 3 1.7 3.5 0.00 0.00 0.00 68 1018.0
20260905163824 86 1 2.6 5.2 0.00 0.00 0.00 69 1018.0
20260905163324 87 356 2.6 6.1 0.00 0.00 0.00 67 1018.0
20260905162824 87 348 2.6 4.3 0.00 0.00 0.00 67 1018.0
20260905162324 87 343 2.6 4.3 0.00 0.00 0.00 67 1018.0
20260905161824 87 349 2.6 5.2 0.00 0.00 0.00 68 1018.0
20260905161324 87 352 2.6 5.2 0.00 0.00 0.00 67 1018.0
20260905160824 88 345 2.6 5.2 0.00 0.00 0.00 66 1018.1
20260905160324 89 341 2.6 5.2 0.00 0.00 0.00 65 1018.1
20260905155824 88 347 2.6 5.2 0.00 0.00 0.00 66 1018.1
20260905155324 88 347 2.6 5.2 0.00 0.00 0.00 66 1018.1
20260905154825 88 348 2.6 5.2 0.00 0.00 0.00 66 1018.1
20260905154324 88 352 2.6 5.2 0.00 0.00 0.00 65 1018.1
20260905153824 87 349 2.6 6.1 0.00 0.00 0.00 66 1018.1
20260905153324 88 344 3.5 6.1 0.00 0.00 0.00 66 1018.1
20260905152824 88 349 2.6 7.8 0.00 0.00 0.00 66 1018.2
20260905152324 88 351 3.5 5.2 0.00 0.00 0.00 65 1018.2
20260905151824 88 345 2.6 5.2 0.00 0.00 0.00 67 1018.3
20260905151324 88 336 3.5 7.0 0.00 0.00 0.00 66 1018.3
20260905150824 89 336 3.5 5.2 0.00 0.00 0.00 65 1018.3
20260905150324 89 340 3.5 6.1 0.00 0.00 0.00 65 1018.3
20260905145824 89 337 2.6 6.1 0.00 0.00 0.00 65 1018.3
20260905145324 89 328 3.5 7.0 0.00 0.00 0.00 65 1018.2
20260905144825 89 334 3.5 7.0 0.00 0.00 0.00 65 1018.3
20260905144324 91 341 2.6 5.2 0.00 0.00 0.00 63 1018.3
20260905143825 91 329 1.7 6.1 0.00 0.00 0.00 62 1018.4
20260905143325 90 333 2.6 7.0 0.00 0.00 0.00 63 1018.3
20260905142824 90 326 2.6 7.0 0.00 0.00 0.00 62 1018.3
20260905142324 91 318 2.6 6.1 0.00 0.00 0.00 63 1018.4
20260905141824 90 327 3.5 6.1 0.00 0.00 0.00 63 1018.3
20260905141326 91 343 2.6 5.2 0.00 0.00 0.00 62 1018.5
20260905140825 89 343 3.5 6.1 0.00 0.00 0.00 63 1018.5
20260905140325 90 330 3.5 6.1 0.00 0.00 0.00 63 1018.5
20260905135824 90 339 2.6 5.2 0.00 0.00 0.00 62 1018.5
20260905135324 90 345 2.6 6.1 0.00 0.00 0.00 62 1018.5
20260905134825 90 351 2.6 5.2 0.00 0.00 0.00 62 1018.6
20260905134324 90 356 3.5 7.0 0.00 0.00 0.00 62 1018.6
20260905133824 89 358 3.5 6.1 0.00 0.00 0.00 62 1018.6
20260905133324 90 349 2.6 5.2 0.00 0.00 0.00 62 1018.7
20260905132824 90 338 3.5 7.0 0.00 0.00 0.00 62 1018.7
20260905132325 90 335 3.5 6.1 0.00 0.00 0.00 61 1018.7
20260905131824 90 341 3.5 7.0 0.00 0.00 0.00 62 1018.8
20260905131324 90 338 3.5 7.0 0.00 0.00 0.00 62 1018.8
20260905130824 90 331 3.5 7.0 0.00 0.00 0.00 61 1018.7
20260905130324 90 339 3.5 7.0 0.00 0.00 0.00 63 1018.8
20260905125825 91 341 2.6 6.1 0.00 0.00 0.00 61 1018.9
20260905125325 90 339 3.5 7.8 0.00 0.00 0.00 63 1018.9
20260905124824 92 353 3.5 7.0 0.00 0.00 0.00 60 1019.0
20260905124325 90 1 3.5 6.1 0.00 0.00 0.00 61 1019.1
20260905123824 90 358 3.5 6.1 0.00 0.00 0.00 61 1019.1
20260905123324 90 344 3.5 7.0 0.00 0.00 0.00 62 1019.1
20260905122824 90 337 3.5 7.0 0.00 0.00 0.00 61 1019.1
20260905122324 90 337 3.5 7.8 0.00 0.00 0.00 63 1019.1
20260905121824 90 337 3.5 7.0 0.00 0.00 0.00 63 1019.1
20260905121325 90 341 4.3 7.8 0.00 0.00 0.00 63 1019.2
20260905120824 90 345 3.5 7.0 0.00 0.00 0.00 63 1019.2
20260905120324 89 340 3.5 7.8 0.00 0.00 0.00 63 1019.1
20260905115825 89 329 3.5 9.6 0.00 0.00 0.00 64 1019.1
20260905115324 91 325 3.5 6.1 0.00 0.00 0.00 62 1019.2
20260905114824 91 331 2.6 6.1 0.00 0.00 0.00 62 1019.3
20260905114325 90 336 3.5 5.2 0.00 0.00 0.00 62 1019.2